SCP
1 0 0 0 0 0 0 0 0 0 0 0 0 0 0 0 0 0 0 0 0 0
0 0 0 0 0 0 0 0 0 0 0 0 0 0 0 0 0 0 0 0 0 0
0 0 0 0 0 0 0 0 0 0 0 0 0 0 0 0 0 0 0 0 0 0
0 0 0 0 0 0 0 0 0 0 0 0 0 0 0 0 0 0 0 0 0 0
0 0 0 0 0 0 0 0 0 0 0 0 0 0 0 0 0 0 0 0 0 0
0 0 0 0 0 0 0 0 0 0 0 0 0 0 0 0 0 0 0 0 0 0
0 0 0 0 0 0 0 0 0 0 0 0 0 0 0 0 0 0 0 0 0 0
0 0 0 0 0 0 0 0 0 0 0 0 0 0 0 0 0 0 0 0 0 0
0 0 0 0 0 0 0 0 0 0 0 0 0 0 0 0 0 0 0 0 0 -0
0 0 0 0 0 0 0 0 0 0 0 0 0 0 0 0 0 0 0 0 0 -0
0 0 0 0 0 0 0 0 0 0 0 0 0 0 0 0 0 0 0 0 -0 -0
0 0 0 0 0 0 0 0 0 0 0 0 0 0 0 0 -0 -0 -0 -0 -0 -0
0 0 0 0 0 0 0 0 0 0 0 0 0 0 -0 -0 -0 -0 0 -0 0 -0
0 0 0 0 0 0 0 0 0 0 0 0 0 0 0 -0 0 0 -0 -0 0 0
Wind_Speed_500mb
26 23 19 14 8 2 6 14 20 25 24 26 30 35 34 23 30 37 36 38 37 38
29 22 16 10 3 6 11 14 18 23 27 31 33 37 39 44 42 38 35 34 33 35
22 16 11 5 3 6 11 15 19 25 31 34 37 39 38 34 32 38 33 31 36 36
23 16 11 7 7 11 16 21 27 31 32 31 31 34 34 34 30 33 33 33 30 33
18 11 7 6 10 16 21 26 29 29 26 26 27 29 29 27 25 26 28 28 30 31
12 9 10 14 19 22 24 26 25 22 25 25 24 24 23 23 25 28 28 29 30 31
10 11 14 17 20 22 23 21 20 22 21 21 23 23 25 27 28 30 30 32 31 31
12 14 16 19 20 20 19 16 18 19 20 21 22 24 34 34 31 30 32 31 30 28
14 15 17 20 18 14 13 16 16 17 18 20 18 32 33 31 37 33 33 31 25 28
15 15 16 14 12 11 11 13 16 17 19 24 24 31 31 28 27 24 23 27 30 32
13 12 12 8 7 8 9 13 18 22 23 19 26 29 28 27 26 24 25 24 27 27
12 10 8 7 7 9 10 14 19 21 21 21 25 28 28 32 33 31 28 24 21 32
10 8 7 6 7 10 11 13 17 17 17 19 25 25 36 35 37 34 28 21 27 30
8 8 6 7 8 9 10 11 16 18 16 19 18 24 34 37 35 32 25 24 24 26
Wind_Direction_500mb
133 132 137 143 146 233 300 312 312 312 313 314 312 310 307 312 304 301 301 301 299 296
133 136 142 155 205 294 293 303 309 312 315 318 316 314 310 307 307 306 303 297 301 298
130 126 119 100 24 338 331 329 323 322 322 320 317 311 310 312 310 310 307 302 294 300
102 93 80 53 7 343 329 326 326 320 318 317 315 313 313 313 314 308 306 306 306 304
94 87 63 12 338 327 325 323 319 320 320 320 319 317 321 321 314 315 312 312 311 310
74 46 9 343 332 328 324 324 322 321 322 326 323 324 324 328 326 320 318 317 314 309
40 6 337 329 327 322 324 327 327 330 334 333 332 335 331 332 326 320 314 310 307 304
351 337 332 331 328 326 330 333 334 338 334 338 343 310 326 328 325 317 314 312 310 308
345 347 340 333 336 337 345 339 338 344 337 337 323 328 330 333 328 321 314 318 318 319
344 343 342 344 339 343 349 334 0 346 337 344 322 334 342 342 344 350 349 339 337 330
351 336 341 333 333 354 346 356 359 341 349 354 349 358 1 359 353 350 339 347 349 348
332 336 338 335 348 346 352 356 356 347 349 2 5 356 356 354 352 351 4 4 18 4
340 340 332 325 339 339 350 352 352 354 352 353 359 346 350 352 349 356 5 18 18 350
336 341 327 337 337 322 0 1 6 6 12 357 352 353 357 354 354 3 14 14 10 8
Wind_Speed_850mb
26 23 19 14 8 2 6 14 20 25 24 26 30 35 34 23 30 37 36 38 37 38
29 22 16 10 3 6 11 14 18 23 27 31 33 37 39 44 42 38 35 34 33 35
22 16 11 5 3 6 11 15 19 25 31 34 37 39 38 34 32 38 33 31 36 36
23 16 11 7 7 11 16 21 27 31 32 31 31 34 34 34 30 33 33 33 30 33
18 11 7 6 10 16 21 26 29 29 26 26 27 29 29 27 25 26 28 28 30 31
12 9 10 14 19 22 24 26 25 22 25 25 24 24 23 23 25 28 28 29 30 31
10 11 14 17 20 22 23 21 20 22 21 21 23 23 25 27 28 30 30 32 31 31
12 14 16 19 20 20 19 16 18 19 20 21 22 24 34 34 31 30 32 31 30 28
14 15 17 20 18 14 13 16 16 17 18 20 18 32 33 31 37 33 33 31 25 28
15 15 16 14 12 11 11 13 16 17 19 24 24 31 31 28 27 24 23 27 30 32
13 12 12 8 7 8 9 13 18 22 23 19 26 29 28 27 26 24 25 24 27 27
12 10 8 7 7 9 10 14 19 21 21 21 25 28 28 32 33 31 28 24 21 32
10 8 7 6 7 10 11 13 17 17 17 19 25 25 36 35 37 34 28 21 27 30
8 8 6 7 8 9 10 11 16 18 16 19 18 24 34 37 35 32 25 24 24 26
Wind_Direction_850mb
133 132 137 143 146 233 300 312 312 312 313 314 312 310 307 312 304 301 301 301 299 296
133 136 142 155 205 294 293 303 309 312 315 318 316 314 310 307 307 306 303 297 301 298
130 126 119 100 24 338 331 329 323 322 322 320 317 311 310 312 310 310 307 302 294 300
102 93 80 53 7 343 329 326 326 320 318 317 315 313 313 313 314 308 306 306 306 304
94 87 63 12 338 327 325 323 319 320 320 320 319 317 321 321 314 315 312 312 311 310
74 46 9 343 332 328 324 324 322 321 322 326 323 324 324 328 326 320 318 317 314 309
40 6 337 329 327 322 324 327 327 330 334 333 332 335 331 332 326 320 314 310 307 304
351 337 332 331 328 326 330 333 334 338 334 338 343 310 326 328 325 317 314 312 310 308
345 347 340 333 336 337 345 339 338 344 337 337 323 328 330 333 328 321 314 318 318 319
344 343 342 344 339 343 349 334 0 346 337 344 322 334 342 342 344 350 349 339 337 330
351 336 341 333 333 354 346 356 359 341 349 354 349 358 1 359 353 350 339 347 349 348
332 336 338 335 348 346 352 356 356 347 349 2 5 356 356 354 352 351 4 4 18 4
340 340 332 325 339 339 350 352 352 354 352 353 359 346 350 352 349 356 5 18 18 350
336 341 327 337 337 322 0 1 6 6 12 357 352 353 357 354 354 3 14 14 10 8